Year,Month,Day,Hour,Minute,Value (Times are PST for temperature in C)
2021,03,26,00,00,4.70
2021,03,26,00,01,4.70
2021,03,26,00,02,4.60
2021,03,26,00,03,4.60
2021,03,26,00,04,4.60
2021,03,26,00,05,4.60
2021,03,26,00,06,4.60
2021,03,26,00,07,4.60
2021,03,26,00,08,4.50
2021,03,26,00,09,4.50
2021,03,26,00,10,4.50
2021,03,26,00,11,4.50
2021,03,26,00,12,4.50
2021,03,26,00,13,4.50
2021,03,26,00,14,4.50
2021,03,26,00,15,4.50
2021,03,26,00,16,4.50
2021,03,26,00,17,4.50
2021,03,26,00,18,4.50
2021,03,26,00,19,4.60
2021,03,26,00,20,4.60
2021,03,26,00,21,4.60
2021,03,26,00,22,4.60
2021,03,26,00,23,4.60
2021,03,26,00,24,4.60
2021,03,26,00,25,4.60
2021,03,26,00,26,4.60
2021,03,26,00,27,4.60
2021,03,26,00,28,4.60
2021,03,26,00,29,4.60
2021,03,26,00,30,4.60
2021,03,26,00,31,4.60
2021,03,26,00,32,4.60
2021,03,26,00,33,4.70
2021,03,26,00,34,4.60
2021,03,26,00,35,4.70
2021,03,26,00,36,4.70
2021,03,26,00,37,4.70
2021,03,26,00,38,4.70
2021,03,26,00,39,4.70
2021,03,26,00,40,4.70
2021,03,26,00,41,4.70
2021,03,26,00,42,4.70
2021,03,26,00,43,4.80
2021,03,26,00,44,4.80
2021,03,26,00,45,4.80
2021,03,26,00,46,4.80
2021,03,26,00,47,4.80
2021,03,26,00,48,4.80
2021,03,26,00,49,4.80
2021,03,26,00,50,4.80
2021,03,26,00,51,4.80
2021,03,26,00,52,4.80
2021,03,26,00,53,4.80
2021,03,26,00,54,4.80
2021,03,26,00,55,4.80
2021,03,26,00,56,4.80
2021,03,26,00,57,4.80
2021,03,26,00,58,4.80
2021,03,26,00,59,4.80
2021,03,26,01,00,4.80
2021,03,26,01,01,4.80
2021,03,26,01,02,4.80
2021,03,26,01,03,4.80
2021,03,26,01,04,4.80
2021,03,26,01,05,4.80
2021,03,26,01,06,4.80
2021,03,26,01,07,4.80
2021,03,26,01,08,4.80
2021,03,26,01,09,4.80
2021,03,26,01,10,4.80
2021,03,26,01,11,4.80
2021,03,26,01,12,4.80
2021,03,26,01,13,4.80
2021,03,26,01,14,4.80
2021,03,26,01,15,4.80
2021,03,26,01,16,4.80
2021,03,26,01,17,4.80
2021,03,26,01,18,4.90
2021,03,26,01,19,4.90
2021,03,26,01,20,4.90
2021,03,26,01,21,4.90
2021,03,26,01,22,4.90
2021,03,26,01,23,4.90
2021,03,26,01,24,4.90
2021,03,26,01,25,4.90
2021,03,26,01,26,4.90
2021,03,26,01,27,4.90
2021,03,26,01,28,4.90
2021,03,26,01,29,4.90
2021,03,26,01,30,4.90
2021,03,26,01,31,4.90
2021,03,26,01,32,4.90
2021,03,26,01,33,4.90
2021,03,26,01,34,4.90
2021,03,26,01,35,4.90
2021,03,26,01,36,4.90
2021,03,26,01,37,4.90
2021,03,26,01,38,4.90
2021,03,26,01,39,4.80
2021,03,26,01,40,4.80
2021,03,26,01,41,4.80
2021,03,26,01,42,4.80
2021,03,26,01,43,4.80
2021,03,26,01,44,4.80
2021,03,26,01,45,4.80
2021,03,26,01,46,4.70
2021,03,26,01,47,4.70
2021,03,26,01,48,4.70
2021,03,26,01,49,4.70
2021,03,26,01,50,4.60
2021,03,26,01,51,4.60
2021,03,26,01,52,4.60
2021,03,26,01,53,4.60
2021,03,26,01,54,4.50
2021,03,26,01,55,4.50
2021,03,26,01,56,4.50
2021,03,26,01,57,4.40
2021,03,26,01,58,4.40
2021,03,26,01,59,4.40
2021,03,26,02,00,4.40
2021,03,26,02,01,4.40
2021,03,26,02,02,4.40
2021,03,26,02,03,4.30
2021,03,26,02,04,4.30
2021,03,26,02,05,4.30
2021,03,26,02,06,4.30
2021,03,26,02,07,4.30
2021,03,26,02,08,4.30
2021,03,26,02,09,4.20
2021,03,26,02,10,4.20
2021,03,26,02,11,4.20
2021,03,26,02,12,4.20
2021,03,26,02,13,4.20
2021,03,26,02,14,4.20
2021,03,26,02,15,4.20
2021,03,26,02,16,4.20
2021,03,26,02,17,4.20
2021,03,26,02,18,4.20
2021,03,26,02,19,4.20
2021,03,26,02,20,4.20
2021,03,26,02,21,4.20
2021,03,26,02,22,4.20
2021,03,26,02,23,4.20
2021,03,26,02,24,4.20
2021,03,26,02,25,4.10
2021,03,26,02,26,4.10
2021,03,26,02,27,4.10
2021,03,26,02,28,4.10
2021,03,26,02,29,4.10
2021,03,26,02,30,4.10
2021,03,26,02,31,4.10
2021,03,26,02,32,4.10
2021,03,26,02,33,4.10
2021,03,26,02,34,4.10
2021,03,26,02,35,4.10
2021,03,26,02,36,4.10
2021,03,26,02,37,4.10
2021,03,26,02,38,4.10
2021,03,26,02,39,4.10
2021,03,26,02,40,4.00
2021,03,26,02,41,4.00
2021,03,26,02,42,4.00
2021,03,26,02,43,4.00
2021,03,26,02,44,4.00
2021,03,26,02,45,3.90
2021,03,26,02,46,3.90
2021,03,26,02,47,3.90
2021,03,26,02,48,3.90
2021,03,26,02,49,3.90
2021,03,26,02,50,3.90
2021,03,26,02,51,3.90
2021,03,26,02,52,3.90
2021,03,26,02,53,3.80
2021,03,26,02,54,3.80
2021,03,26,02,55,3.80
2021,03,26,02,56,3.70
2021,03,26,02,57,3.70
2021,03,26,02,58,3.70
2021,03,26,02,59,3.70
2021,03,26,03,00,3.60
2021,03,26,03,01,3.60
2021,03,26,03,02,3.50
2021,03,26,03,03,3.50
2021,03,26,03,04,3.40
2021,03,26,03,05,3.40
2021,03,26,03,06,3.40
2021,03,26,03,07,3.40
2021,03,26,03,08,3.40
2021,03,26,03,09,3.40
2021,03,26,03,10,3.40
2021,03,26,03,11,3.40
2021,03,26,03,12,3.30
2021,03,26,03,13,3.30
2021,03,26,03,14,3.30
2021,03,26,03,15,3.20
2021,03,26,03,16,3.20
2021,03,26,03,17,3.20
2021,03,26,03,18,3.20
2021,03,26,03,19,3.20
2021,03,26,03,20,3.20
2021,03,26,03,21,3.20
2021,03,26,03,22,3.20
2021,03,26,03,23,3.20
2021,03,26,03,24,3.20
2021,03,26,03,25,3.20
2021,03,26,03,26,3.20
2021,03,26,03,27,3.20
2021,03,26,03,28,3.20
2021,03,26,03,29,3.20
2021,03,26,03,30,3.20
2021,03,26,03,31,3.20
2021,03,26,03,32,3.20
2021,03,26,03,33,3.20
2021,03,26,03,34,3.20
2021,03,26,03,35,3.20
2021,03,26,03,36,3.20
2021,03,26,03,37,3.20
2021,03,26,03,38,3.20
2021,03,26,03,39,3.20
2021,03,26,03,40,3.20
2021,03,26,03,41,3.20
2021,03,26,03,42,3.20
2021,03,26,03,43,3.10
2021,03,26,03,44,3.10
2021,03,26,03,45,3.10
2021,03,26,03,46,3.10
2021,03,26,03,47,3.10
2021,03,26,03,48,3.10
2021,03,26,03,49,3.10
2021,03,26,03,50,3.10
2021,03,26,03,51,3.10
2021,03,26,03,52,3.00
2021,03,26,03,53,3.00
2021,03,26,03,54,3.00
2021,03,26,03,55,3.00
2021,03,26,03,56,2.90
2021,03,26,03,57,2.90
2021,03,26,03,58,2.90
2021,03,26,03,59,2.80
2021,03,26,04,00,2.80
2021,03,26,04,01,2.80
2021,03,26,04,02,2.80
2021,03,26,04,03,2.80
2021,03,26,04,04,2.80
2021,03,26,04,05,2.80
2021,03,26,04,06,2.80
2021,03,26,04,07,2.80
2021,03,26,04,08,2.80
2021,03,26,04,09,2.80
2021,03,26,04,10,2.80
2021,03,26,04,11,2.80
2021,03,26,04,12,2.80
2021,03,26,04,13,2.80
2021,03,26,04,14,2.80
2021,03,26,04,15,2.80
2021,03,26,04,16,2.80
2021,03,26,04,17,2.80
2021,03,26,04,18,2.80
2021,03,26,04,19,2.70
2021,03,26,04,20,2.70
2021,03,26,04,21,2.70
2021,03,26,04,22,2.70
2021,03,26,04,23,2.60
2021,03,26,04,24,2.60
2021,03,26,04,25,2.50
2021,03,26,04,26,2.50
2021,03,26,04,27,2.40
2021,03,26,04,28,2.40
2021,03,26,04,29,2.30
2021,03,26,04,30,2.30
2021,03,26,04,31,2.30
2021,03,26,04,32,2.40
2021,03,26,04,33,2.40
2021,03,26,04,34,2.50
2021,03,26,04,35,2.50
2021,03,26,04,36,2.60
2021,03,26,04,37,2.60
2021,03,26,04,38,2.60
2021,03,26,04,39,2.60
2021,03,26,04,40,2.60
2021,03,26,04,41,2.60
2021,03,26,04,42,2.60
2021,03,26,04,43,2.60
2021,03,26,04,44,2.60
2021,03,26,04,45,2.60
2021,03,26,04,46,2.60
2021,03,26,04,47,2.60
2021,03,26,04,48,2.60
2021,03,26,04,49,2.50
2021,03,26,04,50,2.50
2021,03,26,04,51,2.50
2021,03,26,04,52,2.40
2021,03,26,04,53,2.40
2021,03,26,04,54,2.40
2021,03,26,04,55,2.30
2021,03,26,04,56,2.30
2021,03,26,04,57,2.20
2021,03,26,04,58,2.20
2021,03,26,04,59,2.10
2021,03,26,05,00,2.10
2021,03,26,05,01,2.10
2021,03,26,05,02,2.00
2021,03,26,05,03,2.00
2021,03,26,05,04,2.10
2021,03,26,05,05,2.10
2021,03,26,05,06,2.20
2021,03,26,05,07,2.20
2021,03,26,05,08,2.20
2021,03,26,05,09,2.20
2021,03,26,05,10,2.20
2021,03,26,05,11,2.20
2021,03,26,05,12,2.20
2021,03,26,05,13,2.20
2021,03,26,05,14,2.20
2021,03,26,05,15,2.10
2021,03,26,05,16,2.10
2021,03,26,05,17,2.10
2021,03,26,05,18,2.10
2021,03,26,05,19,2.10
2021,03,26,05,20,2.10
2021,03,26,05,21,2.00
2021,03,26,05,22,2.00
2021,03,26,05,23,2.00
2021,03,26,05,24,2.00
2021,03,26,05,25,2.00
2021,03,26,05,26,2.00
2021,03,26,05,27,2.00
2021,03,26,05,28,2.00
2021,03,26,05,29,2.00
2021,03,26,05,30,2.00
2021,03,26,05,31,2.00
2021,03,26,05,32,2.00
2021,03,26,05,33,2.00
2021,03,26,05,34,2.10
2021,03,26,05,35,2.10
2021,03,26,05,36,2.10
2021,03,26,05,37,2.10
2021,03,26,05,38,2.10
2021,03,26,05,39,2.10
2021,03,26,05,40,2.10
2021,03,26,05,41,2.10
2021,03,26,05,42,2.10
2021,03,26,05,43,2.10
2021,03,26,05,44,2.10
2021,03,26,05,45,2.10
2021,03,26,05,46,2.10
2021,03,26,05,47,2.10
2021,03,26,05,48,2.10
2021,03,26,05,49,2.10
2021,03,26,05,50,2.10
2021,03,26,05,51,2.10
2021,03,26,05,52,2.00
2021,03,26,05,53,2.00
2021,03,26,05,54,2.00
2021,03,26,05,55,2.00
2021,03,26,05,56,2.00
2021,03,26,05,57,2.00
2021,03,26,05,58,2.00
2021,03,26,05,59,2.10
2021,03,26,06,00,2.10
2021,03,26,06,01,2.20
2021,03,26,06,02,2.20
2021,03,26,06,03,2.30
2021,03,26,06,04,2.30
2021,03,26,06,05,2.30
2021,03,26,06,06,2.30
2021,03,26,06,07,2.30
2021,03,26,06,08,2.30
2021,03,26,06,09,2.20
2021,03,26,06,10,2.20
2021,03,26,06,11,2.20
2021,03,26,06,12,2.10
2021,03,26,06,13,2.10
2021,03,26,06,14,2.00
2021,03,26,06,15,2.00
2021,03,26,06,16,1.90
2021,03,26,06,17,1.90
2021,03,26,06,18,1.90
2021,03,26,06,19,1.90
2021,03,26,06,20,1.90
2021,03,26,06,21,1.80
2021,03,26,06,22,1.80
2021,03,26,06,23,1.80
2021,03,26,06,24,1.80
2021,03,26,06,25,1.80
2021,03,26,06,26,1.70
2021,03,26,06,27,1.70
2021,03,26,06,28,1.70
2021,03,26,06,29,1.70
2021,03,26,06,30,1.70
2021,03,26,06,31,1.60
2021,03,26,06,32,1.60
2021,03,26,06,33,1.60
2021,03,26,06,34,1.60
2021,03,26,06,35,1.60
2021,03,26,06,36,1.60
2021,03,26,06,37,1.60
2021,03,26,06,38,1.60
2021,03,26,06,39,1.60
2021,03,26,06,40,1.60
2021,03,26,06,41,1.60
2021,03,26,06,42,1.60
2021,03,26,06,43,1.60
2021,03,26,06,44,1.60
2021,03,26,06,45,1.60
2021,03,26,06,46,1.60
2021,03,26,06,47,1.60
2021,03,26,06,48,1.60
2021,03,26,06,49,1.60
2021,03,26,06,50,1.60
2021,03,26,06,51,1.60
2021,03,26,06,52,1.60
2021,03,26,06,53,1.60
2021,03,26,06,54,1.60
2021,03,26,07,46,1.80
2021,03,26,07,47,1.80
2021,03,26,07,48,1.80
2021,03,26,07,49,1.90
2021,03,26,07,50,1.90
2021,03,26,07,51,1.90
2021,03,26,07,52,1.90
2021,03,26,07,53,1.90
2021,03,26,07,54,1.90
2021,03,26,07,55,1.90
2021,03,26,07,56,1.90
2021,03,26,07,57,1.90
2021,03,26,07,58,1.90
2021,03,26,07,59,2.00
2021,03,26,08,00,2.00
2021,03,26,08,01,2.00
2021,03,26,08,02,2.00
2021,03,26,08,03,2.10
2021,03,26,08,04,2.10
2021,03,26,08,05,2.20
2021,03,26,08,06,2.20
2021,03,26,08,07,2.30
2021,03,26,08,08,2.30
2021,03,26,08,09,2.40
2021,03,26,08,10,2.40
2021,03,26,08,11,2.50
2021,03,26,08,12,2.60
2021,03,26,08,13,2.60
2021,03,26,08,14,2.70
2021,03,26,08,15,2.70
2021,03,26,08,16,2.80
2021,03,26,08,17,2.80
2021,03,26,08,18,2.90
2021,03,26,08,19,2.90
2021,03,26,08,20,3.00
2021,03,26,08,21,3.00
2021,03,26,08,22,3.10
2021,03,26,08,23,3.20
2021,03,26,08,24,3.20
2021,03,26,08,25,3.30
2021,03,26,08,26,3.30
2021,03,26,08,27,3.30
2021,03,26,08,28,3.40
2021,03,26,08,29,3.40
2021,03,26,08,30,3.50
2021,03,26,08,31,3.60
2021,03,26,08,32,3.70
2021,03,26,08,33,3.70
2021,03,26,08,34,3.80
2021,03,26,08,35,3.90
2021,03,26,08,36,3.90
2021,03,26,08,37,3.90
2021,03,26,08,38,4.00
2021,03,26,08,39,4.00
2021,03,26,08,40,4.00
2021,03,26,08,41,4.10
2021,03,26,08,42,4.10
2021,03,26,08,43,4.10
2021,03,26,08,44,4.10
2021,03,26,08,45,4.20
2021,03,26,08,46,4.20
2021,03,26,08,47,4.30
2021,03,26,08,48,4.30
2021,03,26,08,49,4.30
2021,03,26,08,50,4.40
2021,03,26,08,51,4.40
2021,03,26,08,52,4.50
2021,03,26,08,53,4.60
2021,03,26,08,54,4.60
2021,03,26,08,55,4.70
2021,03,26,08,56,4.70
2021,03,26,08,57,4.80
2021,03,26,08,58,4.80
2021,03,26,08,59,4.90
2021,03,26,09,00,5.00
2021,03,26,09,01,5.00
2021,03,26,09,02,5.10
2021,03,26,09,03,5.20
2021,03,26,09,04,5.30
2021,03,26,09,05,5.40
2021,03,26,09,06,5.40
2021,03,26,09,07,5.50
2021,03,26,09,08,5.60
2021,03,26,09,09,5.70
2021,03,26,09,10,5.80
2021,03,26,09,11,5.90
2021,03,26,09,12,6.00
2021,03,26,09,13,6.10
2021,03,26,09,14,6.20
2021,03,26,09,15,6.20
2021,03,26,09,16,6.30
2021,03,26,09,17,6.40
2021,03,26,09,18,6.50
2021,03,26,09,19,6.50
2021,03,26,09,20,6.60
2021,03,26,09,21,6.70
2021,03,26,09,22,6.70
2021,03,26,09,23,6.70
2021,03,26,09,24,6.80
2021,03,26,09,25,6.80
2021,03,26,09,26,6.90
2021,03,26,09,27,6.90
2021,03,26,09,28,7.00
2021,03,26,09,29,7.00
2021,03,26,09,30,7.10
2021,03,26,09,31,7.10
2021,03,26,09,32,7.20
2021,03,26,09,33,7.20
2021,03,26,09,34,7.30
2021,03,26,09,35,7.30
2021,03,26,09,36,7.30
2021,03,26,09,37,7.40
2021,03,26,09,38,7.50
2021,03,26,09,39,7.50
2021,03,26,09,40,7.60
2021,03,26,09,41,7.70
2021,03,26,09,42,7.70
2021,03,26,09,43,7.80
2021,03,26,09,44,7.80
2021,03,26,09,45,7.90
2021,03,26,09,46,7.90
2021,03,26,09,47,8.00
2021,03,26,09,48,8.00
2021,03,26,09,49,8.10
2021,03,26,09,50,8.10
2021,03,26,09,51,8.20
2021,03,26,09,52,8.20
2021,03,26,09,53,8.30
2021,03,26,09,54,8.40
2021,03,26,09,55,8.40
2021,03,26,09,56,8.50
2021,03,26,09,57,8.60
2021,03,26,09,58,8.70
2021,03,26,09,59,8.70
2021,03,26,10,00,8.70
2021,03,26,10,01,8.80
2021,03,26,10,02,8.80
2021,03,26,10,03,8.80
2021,03,26,10,04,8.80
2021,03,26,10,05,8.90
2021,03,26,10,06,8.90
2021,03,26,10,07,9.00
2021,03,26,10,08,9.10
2021,03,26,10,09,9.10
2021,03,26,10,10,9.20
2021,03,26,10,11,9.30
2021,03,26,10,12,9.30
2021,03,26,10,13,9.40
2021,03,26,10,14,9.40
2021,03,26,10,15,9.50
2021,03,26,10,16,9.60
2021,03,26,10,17,9.60
2021,03,26,10,18,9.60
2021,03,26,10,19,9.70
2021,03,26,10,20,9.70
2021,03,26,10,21,9.80
2021,03,26,10,22,9.80
2021,03,26,10,23,9.80
2021,03,26,10,24,9.80
2021,03,26,10,25,9.80
2021,03,26,10,26,9.80
2021,03,26,10,27,9.80
2021,03,26,10,28,9.80
2021,03,26,10,29,9.80
2021,03,26,10,30,9.70
2021,03,26,10,31,9.80
2021,03,26,10,32,9.80
2021,03,26,10,33,9.80
2021,03,26,10,34,9.80
2021,03,26,10,35,9.90
2021,03,26,10,36,9.90
2021,03,26,10,37,9.90
2021,03,26,10,38,9.90
2021,03,26,10,39,9.90
2021,03,26,10,40,9.90
2021,03,26,10,41,10.00
2021,03,26,10,42,10.00
2021,03,26,10,43,10.00
2021,03,26,10,44,10.10
2021,03,26,10,45,10.10
2021,03,26,10,46,10.20
2021,03,26,10,47,10.30
2021,03,26,10,48,10.30
2021,03,26,10,49,10.30
2021,03,26,10,50,10.30
2021,03,26,10,51,10.30
2021,03,26,10,52,10.30
2021,03,26,10,53,10.30
2021,03,26,10,54,10.30
2021,03,26,10,55,10.30
2021,03,26,10,56,10.30
2021,03,26,10,57,10.30
2021,03,26,10,58,10.30
2021,03,26,10,59,10.30
2021,03,26,11,00,10.40
2021,03,26,11,01,10.40
2021,03,26,11,02,10.40
2021,03,26,11,03,10.50
2021,03,26,11,04,10.60
2021,03,26,11,05,10.70
2021,03,26,11,06,10.70
2021,03,26,11,07,10.70
2021,03,26,11,08,10.70
2021,03,26,11,09,10.80
2021,03,26,11,10,10.80
2021,03,26,11,11,10.80
2021,03,26,11,12,10.80
2021,03,26,11,13,10.70
2021,03,26,11,14,10.70
2021,03,26,11,15,10.70
2021,03,26,11,16,10.70
2021,03,26,11,17,10.70
2021,03,26,11,18,10.70
2021,03,26,11,19,10.70
2021,03,26,11,20,10.70
2021,03,26,11,21,10.70
2021,03,26,11,22,10.70
2021,03,26,11,23,10.70
2021,03,26,11,24,10.70
2021,03,26,11,25,10.70
2021,03,26,11,26,10.80
2021,03,26,11,27,10.80
2021,03,26,11,28,10.90
2021,03,26,11,29,10.90
2021,03,26,11,30,11.00
2021,03,26,11,31,11.10
2021,03,26,11,32,11.10
2021,03,26,11,33,11.10
2021,03,26,11,34,11.10
2021,03,26,11,35,11.00
2021,03,26,11,36,10.90
2021,03,26,11,37,10.90
2021,03,26,11,38,10.90
2021,03,26,11,39,10.90
2021,03,26,11,40,10.90
2021,03,26,11,41,10.90
2021,03,26,11,42,10.90
2021,03,26,11,43,10.90
2021,03,26,11,44,10.90
2021,03,26,11,45,10.80
2021,03,26,11,46,10.70
2021,03,26,11,47,10.80
2021,03,26,11,48,10.80
2021,03,26,11,49,10.80
2021,03,26,11,50,10.70
2021,03,26,11,51,10.70
2021,03,26,11,52,10.70
2021,03,26,11,53,10.80
2021,03,26,11,54,10.80
2021,03,26,11,55,10.90
2021,03,26,11,56,10.90
2021,03,26,11,57,11.00
2021,03,26,11,58,11.10
2021,03,26,11,59,11.00
2021,03,26,12,00,10.90
2021,03,26,12,01,10.70
2021,03,26,12,02,10.60
2021,03,26,12,03,10.50
2021,03,26,12,04,10.50
2021,03,26,12,05,10.40
2021,03,26,12,06,10.30
2021,03,26,12,07,10.10
2021,03,26,12,08,10.00
2021,03,26,12,09,10.00
2021,03,26,12,10,9.90
2021,03,26,12,11,9.90
2021,03,26,12,12,9.80
2021,03,26,12,13,9.80
2021,03,26,12,14,9.80
2021,03,26,12,15,9.90
2021,03,26,12,16,9.90
2021,03,26,12,17,9.80
2021,03,26,12,18,9.80
2021,03,26,12,19,9.80
2021,03,26,12,20,9.80
2021,03,26,12,21,9.70
2021,03,26,12,22,9.70
2021,03,26,12,23,9.60
2021,03,26,12,24,9.60
2021,03,26,12,25,9.50
2021,03,26,12,26,9.50
2021,03,26,12,27,9.40
2021,03,26,12,28,9.40
2021,03,26,12,29,9.50
2021,03,26,12,30,9.50
2021,03,26,12,31,9.60
2021,03,26,12,32,9.60
2021,03,26,12,33,9.70
2021,03,26,12,34,9.70
2021,03,26,12,35,9.70
2021,03,26,12,36,9.70
2021,03,26,12,37,9.70
2021,03,26,12,38,9.70
2021,03,26,12,39,9.80
2021,03,26,12,40,9.90
2021,03,26,12,41,9.90
2021,03,26,12,42,9.90
2021,03,26,12,43,9.90
2021,03,26,12,44,9.90
2021,03,26,12,45,9.90
2021,03,26,12,46,10.00
2021,03,26,12,47,10.00
2021,03,26,12,48,10.00
2021,03,26,12,49,10.00
2021,03,26,12,50,10.10
2021,03,26,12,51,10.10
2021,03,26,12,52,10.10
2021,03,26,12,53,10.10
2021,03,26,12,54,10.00
2021,03,26,12,55,10.00
2021,03,26,12,56,10.00
2021,03,26,12,57,10.00
2021,03,26,12,58,9.90
2021,03,26,12,59,9.90
2021,03,26,13,00,9.90
2021,03,26,13,01,9.90
2021,03,26,13,02,10.00
2021,03,26,13,03,10.10
2021,03,26,13,04,10.20
2021,03,26,13,05,10.20
2021,03,26,13,06,10.20
2021,03,26,13,07,10.20
2021,03,26,13,08,10.20
2021,03,26,13,09,10.20
2021,03,26,13,10,10.30
2021,03,26,13,11,10.30
2021,03,26,13,12,10.30
2021,03,26,13,13,10.30
2021,03,26,13,14,10.30
2021,03,26,13,15,10.20
2021,03,26,13,16,10.20
2021,03,26,13,17,10.20
2021,03,26,13,18,10.20
2021,03,26,13,19,10.20
2021,03,26,13,20,10.20
2021,03,26,13,21,10.30
2021,03,26,13,22,10.30
2021,03,26,13,23,10.40
2021,03,26,13,24,10.40
2021,03,26,13,25,10.50
2021,03,26,13,26,10.60
2021,03,26,13,27,10.60
2021,03,26,13,28,10.70
2021,03,26,13,29,10.70
2021,03,26,13,30,10.70
2021,03,26,13,31,10.70
2021,03,26,13,32,10.60
2021,03,26,13,33,10.60
2021,03,26,13,34,10.60
2021,03,26,13,35,10.50
2021,03,26,13,36,10.50
2021,03,26,13,37,10.50
2021,03,26,13,38,10.50
2021,03,26,13,39,10.40
2021,03,26,13,40,10.30
2021,03,26,13,41,10.20
2021,03,26,13,42,10.20
2021,03,26,13,43,10.20
2021,03,26,13,44,10.30
2021,03,26,13,45,10.30
2021,03,26,13,46,10.30
2021,03,26,13,47,10.30
2021,03,26,13,48,10.30
2021,03,26,13,49,10.30
2021,03,26,13,50,10.20
2021,03,26,13,51,10.30
2021,03,26,13,52,10.40
2021,03,26,13,53,10.40
2021,03,26,13,54,10.40
2021,03,26,13,55,10.40
2021,03,26,13,56,10.40
2021,03,26,13,57,10.40
2021,03,26,13,58,10.40
2021,03,26,13,59,10.30
2021,03,26,14,00,10.30
2021,03,26,14,01,10.30
2021,03,26,14,02,10.30
2021,03,26,14,03,10.30
2021,03,26,14,04,10.30
2021,03,26,14,05,10.40
2021,03,26,14,06,10.40
2021,03,26,14,07,10.40
2021,03,26,14,08,10.40
2021,03,26,14,09,10.40
2021,03,26,14,10,10.40
2021,03,26,14,11,10.40
2021,03,26,14,12,10.40
2021,03,26,14,13,10.40
2021,03,26,14,14,10.40
2021,03,26,14,15,10.40
2021,03,26,14,16,10.30
2021,03,26,14,17,10.30
2021,03,26,14,18,10.30
2021,03,26,14,19,10.30
2021,03,26,14,20,10.30
2021,03,26,14,21,10.30
2021,03,26,14,22,10.30
2021,03,26,14,23,10.30
2021,03,26,14,24,10.30
2021,03,26,14,25,10.20
2021,03,26,14,26,10.20
2021,03,26,14,27,10.30
2021,03,26,14,28,10.40
2021,03,26,14,29,10.40
2021,03,26,14,30,10.50
2021,03,26,14,31,10.40
2021,03,26,14,32,10.40
2021,03,26,14,33,10.40
2021,03,26,14,34,10.40
2021,03,26,14,35,10.50
2021,03,26,14,36,10.60
2021,03,26,14,37,10.60
2021,03,26,14,38,10.70
2021,03,26,14,39,10.70
2021,03,26,14,40,10.70
2021,03,26,14,41,10.70
2021,03,26,14,42,10.80
2021,03,26,14,43,10.70
2021,03,26,14,44,10.70
2021,03,26,14,45,10.60
2021,03,26,14,46,10.50
2021,03,26,14,47,10.40
2021,03,26,14,48,10.40
2021,03,26,14,49,10.40
2021,03,26,14,50,10.30
2021,03,26,14,51,10.30
2021,03,26,14,52,10.40
2021,03,26,14,53,10.40
2021,03,26,14,54,10.40
2021,03,26,14,55,10.40
2021,03,26,14,56,10.50
2021,03,26,14,57,10.60
2021,03,26,14,58,10.60
2021,03,26,14,59,10.50
2021,03,26,15,00,10.50
2021,03,26,15,01,10.40
2021,03,26,15,02,10.40
2021,03,26,15,03,10.50
2021,03,26,15,04,10.50
2021,03,26,15,05,10.60
2021,03,26,15,06,10.60
2021,03,26,15,07,10.70
2021,03,26,15,08,10.70
2021,03,26,15,09,10.80
2021,03,26,15,10,10.80
2021,03,26,15,11,10.80
2021,03,26,15,12,10.80
2021,03,26,15,13,10.80
2021,03,26,15,14,10.90
2021,03,26,15,15,10.90
2021,03,26,15,16,10.90
2021,03,26,15,17,10.90
2021,03,26,15,18,10.90
2021,03,26,15,19,10.90
2021,03,26,15,20,10.90
2021,03,26,15,21,10.90
2021,03,26,15,22,10.90
2021,03,26,15,23,10.80
2021,03,26,15,24,10.80
2021,03,26,15,25,10.90
2021,03,26,15,26,10.90
2021,03,26,15,27,10.80
2021,03,26,15,28,10.80
2021,03,26,15,29,10.70
2021,03,26,15,30,10.60
2021,03,26,15,31,10.60
2021,03,26,15,32,10.60
2021,03,26,15,33,10.50
2021,03,26,15,34,10.40
2021,03,26,15,35,10.40
2021,03,26,15,36,10.30
2021,03,26,15,37,10.40
2021,03,26,15,38,10.40
2021,03,26,15,39,10.40
2021,03,26,15,40,10.40
2021,03,26,15,41,10.30
2021,03,26,15,42,10.40
2021,03,26,15,43,10.50
2021,03,26,15,44,10.40
2021,03,26,15,45,10.40
2021,03,26,15,46,10.40
2021,03,26,15,47,10.40
2021,03,26,15,48,10.50
2021,03,26,15,49,10.50
2021,03,26,15,50,10.60
2021,03,26,15,51,10.50
2021,03,26,15,52,10.50
2021,03,26,15,53,10.60
2021,03,26,15,54,10.50
2021,03,26,15,55,10.50
2021,03,26,15,56,10.40
2021,03,26,15,57,10.40
2021,03,26,15,58,10.40
2021,03,26,15,59,10.40
2021,03,26,16,00,10.40
2021,03,26,16,01,10.40
2021,03,26,16,02,10.30
2021,03,26,16,03,10.30
2021,03,26,16,04,10.30
2021,03,26,16,05,10.20
2021,03,26,16,06,10.20
2021,03,26,16,07,10.20
2021,03,26,16,08,10.20
2021,03,26,16,09,10.20
2021,03,26,16,10,10.20
2021,03,26,16,11,10.30
2021,03,26,16,12,10.30
2021,03,26,16,13,10.40
2021,03,26,16,14,10.50
2021,03,26,16,15,10.50
2021,03,26,16,16,10.50
2021,03,26,16,17,10.60
2021,03,26,16,18,10.60
2021,03,26,16,19,10.60
2021,03,26,16,20,10.60
2021,03,26,16,21,10.70
2021,03,26,16,22,10.80
2021,03,26,16,23,10.70
2021,03,26,16,24,10.70
2021,03,26,16,25,10.60
2021,03,26,16,26,10.50
2021,03,26,16,27,10.50
2021,03,26,16,28,10.40
2021,03,26,16,29,10.40
2021,03,26,16,30,10.40
2021,03,26,16,31,10.30
2021,03,26,16,32,10.30
2021,03,26,16,33,10.40
2021,03,26,16,34,10.50
2021,03,26,16,35,10.50
2021,03,26,16,36,10.40
2021,03,26,16,37,10.50
2021,03,26,16,38,10.50
2021,03,26,16,39,10.50
2021,03,26,16,40,10.60
2021,03,26,16,41,10.60
2021,03,26,16,42,10.70
2021,03,26,16,43,10.60
2021,03,26,16,44,10.50
2021,03,26,16,45,10.40
2021,03,26,16,46,10.40
2021,03,26,16,47,10.40
2021,03,26,16,48,10.40
2021,03,26,16,49,10.40
2021,03,26,16,50,10.40
2021,03,26,16,51,10.30
2021,03,26,16,52,10.30
2021,03,26,16,53,10.30
2021,03,26,16,54,10.40
2021,03,26,16,55,10.40
2021,03,26,16,56,10.30
2021,03,26,16,57,10.30
2021,03,26,16,58,10.20
2021,03,26,16,59,10.20
2021,03,26,17,00,10.10
2021,03,26,17,01,10.10
2021,03,26,17,02,10.00
2021,03,26,17,03,10.00
2021,03,26,17,04,10.00
2021,03,26,17,05,10.00
2021,03,26,17,06,10.10
2021,03,26,17,07,10.10
2021,03,26,17,08,10.20
2021,03,26,17,09,10.20
2021,03,26,17,10,10.10
2021,03,26,17,11,10.00
2021,03,26,17,12,9.90
2021,03,26,17,13,9.80
2021,03,26,17,14,9.80
2021,03,26,17,15,9.80
2021,03,26,17,16,9.90
2021,03,26,17,17,9.90
2021,03,26,17,18,10.00
2021,03,26,17,19,10.00
2021,03,26,17,20,10.00
2021,03,26,17,21,10.00
2021,03,26,17,22,10.00
2021,03,26,17,23,10.00
2021,03,26,17,24,10.00
2021,03,26,17,25,10.00
2021,03,26,17,26,10.00
2021,03,26,17,27,10.00
2021,03,26,17,28,10.10
2021,03,26,17,29,10.20
2021,03,26,17,30,10.20
2021,03,26,17,31,10.20
2021,03,26,17,32,10.20
2021,03,26,17,33,10.10
2021,03,26,17,34,10.20
2021,03,26,17,35,10.10
2021,03,26,17,36,10.10
2021,03,26,17,37,10.10
2021,03,26,17,38,10.10
2021,03,26,17,39,10.00
2021,03,26,17,40,10.00
2021,03,26,17,41,10.00
2021,03,26,17,42,10.10
2021,03,26,17,43,10.10
2021,03,26,17,44,10.10
2021,03,26,17,45,10.10
2021,03,26,17,46,10.10
2021,03,26,17,47,10.10
2021,03,26,17,48,10.00
2021,03,26,17,49,10.00
2021,03,26,17,50,10.00
2021,03,26,17,51,10.00
2021,03,26,17,52,10.10
2021,03,26,17,53,10.10
2021,03,26,17,54,10.10
2021,03,26,17,55,10.10
2021,03,26,17,56,10.20
2021,03,26,17,57,10.20
2021,03,26,17,58,10.20
2021,03,26,17,59,10.30
2021,03,26,18,00,10.20
2021,03,26,18,01,10.20
2021,03,26,18,02,10.20
2021,03,26,18,03,10.20
2021,03,26,18,04,10.20
2021,03,26,18,05,10.20
2021,03,26,18,06,10.20
2021,03,26,18,07,10.20
2021,03,26,18,08,10.20
2021,03,26,18,09,10.20
2021,03,26,18,10,10.30
2021,03,26,18,11,10.30
2021,03,26,18,12,10.40
2021,03,26,18,13,10.50
2021,03,26,18,14,10.70
2021,03,26,18,15,10.80
2021,03,26,18,16,11.00
2021,03,26,18,17,11.10
2021,03,26,18,18,11.20
2021,03,26,18,19,11.30
2021,03,26,18,20,11.40
2021,03,26,18,21,11.50
2021,03,26,18,22,11.50
2021,03,26,18,23,11.60
2021,03,26,18,24,11.60
2021,03,26,18,25,11.50
2021,03,26,18,26,11.50
2021,03,26,18,27,11.50
2021,03,26,18,28,11.50
2021,03,26,18,29,11.50
2021,03,26,18,30,11.50
2021,03,26,18,31,11.50
2021,03,26,18,32,11.50
2021,03,26,18,33,11.50
2021,03,26,18,34,11.50
2021,03,26,18,35,11.50
2021,03,26,18,36,11.40
2021,03,26,18,37,11.40
2021,03,26,18,38,11.40